Regional Weather Roundup
Issued by NWS

Home | Current Version | Previous Version | Text Only | Print | Product List | Glossary Off
Versions: 1 2 3 4 5 6 7 8 9 10 11 12 13 14 15 16 17 18 19 20 21 22 23 24 25 26 27 28 29 30 31 32 33 34 35 36 37 38 39 40 41 42 43 44 45 46 47 48 49 50

000
ASUS43 KMPX 252101
RWRMN
WEATHER ROUNDUP FOR MINNESOTA
NATIONAL WEATHER SERVICE TWIN CITIES/CHANHASSEN MN
400 PM CDT TUE JUL 25 2017


NOTE: "FAIR" INDICATES FEW OR NO CLOUDS BELOW 12,000 FEET WITH NO
SIGNIFICANT WEATHER AND/OR OBSTRUCTIONS TO VISIBILITY. N/A MEANS
CURRENT SKY AND/OR WEATHER CONDITIONS ARE NOT AVAILABLE.

MNZ060>063-068>070-252200-
   Twin Cities Metro

CITY           SKY/WX    TMP DP  RH WIND       PRES   REMARKS
TWIN CITIES    CLOUDY    81  69  67 S10       29.96S
ST PAUL        PTSUNNY   81  71  71 SE13      29.96S
CRYSTAL        PTSUNNY   82  67  60 SE16      29.93F
BLAINE         PTSUNNY   82  70  65 S9G20     29.95F
LAKEVILLE      PTSUNNY   81  72  74 S9G17     29.97S
EDEN PRAIRIE   CLOUDY    83  72  69 S9        29.93F
SOUTH ST PAUL  PTSUNNY   79  68  68 S9G17     29.96F
LAKE ELMO      CLOUDY    79  70  73 S15       29.99S
$$
MNZ001>005-007-008-013>017-022>024-027-028-252200-
   Northwest Minnesota

CITY           SKY/WX    TMP DP  RH WIND       PRES   REMARKS
BEMIDJI        CLOUDY    76  67  75 S9G16     29.91S
HALLOCK        SUNNY     82  57  42 NW8       29.85R
ROSEAU         SUNNY     82  70  65 SW13      29.84S
WARROAD        MOSUNNY   82  70  65 SW12G21   29.83S
CROOKSTON      MOSUNNY   82  70  65 SW8       29.88S
FOSSTON        CLOUDY    75  66  73 S8        29.91S
DETROIT LAKES  CLOUDY    73  68  83 S5        29.93S
MOORHEAD       CLOUDY    75  68  78 CALM      29.91R
PARK RAPIDS    CLOUDY    75  67  76 S5        29.91F
MAHNOMEN       CLOUDY    74  68  80 S8        29.91S
$$
MNZ006-009>011-018-025>026-252200-
   North Central Minnesota

CITY           SKY/WX    TMP DP  RH WIND       PRES   REMARKS
BAUDETTE       CLOUDY    77  69  76 SW13      29.84
FLAG ISLAND    MOSUNNY   81  64  57 S8        29.80F HAZE
INTL FALLS     CLOUDY    74  66  76 S8        29.87F
WASKISH        CLOUDY    77  68  73 S5        29.87F
BIG FORK       CLOUDY    72  66  83 S6        29.92R
LONGVILLE      CLOUDY    72  66  83 S7        29.93F
GRAND RAPIDS   CLOUDY    71  67  87 S12       29.96R
CRANE LAKE     CLOUDY    72  64  78 S6        29.93F
ORR            CLOUDY    73  63  68 S8G21     29.89F
COOK             N/A     72  66  83 S8        29.94F
WALKER         CLOUDY    71  66  86 S7        29.94R
$$
MNZ012-019>021-037-252200-
   Northeast Minnesota

CITY           SKY/WX    TMP DP  RH WIND       PRES   REMARKS
DULUTH         CLOUDY    69  64  84 SE6       29.98S
ELY            CLOUDY    73  63  68 S6        29.96S
HIBBING        CLOUDY    71  66  84 S10       29.94F
EVELETH        CLOUDY    73  63  72 S9        29.97S
DULUTH HARBOR  CLOUDY    64  63  94 NE10      29.97S
TWO HARBORS    CLOUDY    73  64  73 S5        29.97R
GRAND MARAIS     N/A     62  57  83 NE5       29.98F
G MARAIS ARPRT PTSUNNY   66  55  68 S6        30.03F
$$
MNZ029>031-032-039>041-046>048-054>057-064-252200-
   West Central Minnesota

CITY           SKY/WX    TMP DP  RH WIND       PRES   REMARKS
FERGUS FALLS   MOSUNNY   79  70  73 S10       29.89S
WHEATON        MOSUNNY   79  70  73 CALM      29.91F
MORRIS         MOSUNNY   84  72  65 SE3       29.90F
ALEXANDRIA     MOSUNNY   78  71  79 S10       29.94F
ELBOW LAKE     FAIR      77  71  81 W7        29.93R
WADENA         CLOUDY    75  68  78 S7        29.92R
GLENWOOD       PTSUNNY   82  72  69 SE5       29.94F
APPLETON       PTSUNNY   88  72  58 N5        29.90S HX  94
BENSON         CLOUDY    88  72  58 CALM      29.92F HX  94
ORTONVILLE     MOSUNNY   84  70  61 MISG      29.89F
MADISON        MOSUNNY   88  73  62 N7        29.89F THUNDER HX  96
WILLMAR        FAIR      88  75  66 S9        29.91F HX  97
$$
MNZ033>034-036-042>043-049>051-058-059-252200-
   Central Minnesota

CITY           SKY/WX    TMP DP  RH WIND       PRES   REMARKS
ST CLOUD       CLOUDY    81  72  74 S9        29.94S
SAUK CENTRE    CLOUDY    79  70  75 S5        29.95S
PAYNESVILLE    CLOUDY    85  72  63 S5        29.94R HX  91
AITKIN         CLOUDY    73  66  78 S7        29.94S
PINE RIVER     CLOUDY    72  66  83 S7        29.96F
BRAINERD       CLOUDY    74  68  81 S13       29.93F
STAPLES        CLOUDY    73  66  78 S13       29.93F
LONG PRAIRIE   CLOUDY    77  70  78 SE7       29.95F
LITTLE FALLS   CLOUDY    77  68  73 S3        29.96R
LITCHFIELD     MOSUNNY   90  75  62 S6        29.91F HX 100
BUFFALO        CLOUDY    81  70  67 SE3       29.95S
MAPLE LAKE     CLOUDY    82  73  75 S5        29.95S
HUTCHINSON     MOSUNNY   87  76  70 S10       29.93F HX  97
$$
MNZ037-044-045-052-053-252200-
   East Central Minnesota

CITY           SKY/WX    TMP DP  RH WIND       PRES   REMARKS
PRINCETON      PTSUNNY   82  70  65 S9        29.95S
MORA           CLOUDY    75  64  69 S9        29.98S
CAMBRIDGE      CLOUDY    81  66  61 S10       29.94S
RUSH CITY      PTSUNNY   79  67  66 S8        29.96S
MOOSE LAKE     CLOUDY    72  64  78 CALM      29.96S
HINCKLEY       CLOUDY    73  68  83 CALM      29.97S
CLOQUET        CLOUDY    72  64  78 S3        29.98S
MCGREGOR       CLOUDY    72  64  78 S10       29.95F
$$
MNZ071>073-080-081-089-090-097-098-252200-
   Southwest Minnesota

CITY           SKY/WX    TMP DP  RH WIND       PRES   REMARKS
MONTEVIDEO     CLOUDY    90  72  55 SW3       29.90S HX  96
GRANITE FALLS  MOSUNNY   89  75  64 S6        29.91R HX  99
CANBY          TSTM      87  74  64 CALM      29.91R HX  94
MARSHALL       CLOUDY    89  76  65 SW7       29.89S HX 100
REDWOOD FALLS  MOSUNNY   90  74  59 SW12G20   29.89F HX  99
OLIVIA         MOSUNNY   90  73  58 S9        29.90S HX  98
PIPESTONE      MOSUNNY   91  73  55 S17       29.90F HX 100
WINDOM         SUNNY     91  72  52 S18       29.92F HX  98
WORTHINGTON    SUNNY     90  73  57 S16G28    29.93F HX  98
JACKSON        SUNNY     90  70  51 S18G25    29.95F HX  95
TRACY          SUNNY     89  76  65 SW12      29.91S HX 100
SLAYTON        SUNNY     90  67  46 S17G25    29.92F HX  92
$$
MNZ065>067-074>077-082>085-091>093-252200-
   South Central Minnesota

CITY           SKY/WX    TMP DP  RH WIND       PRES   REMARKS
MANKATO        MOSUNNY   85  73  67 S17G28    29.94F HX  91
NEW ULM        SUNNY     88  73  62 S13G20    29.91F HX  96
ST JAMES       SUNNY     88  73  62 S16G23    29.92F HX  96
FAIRMONT       SUNNY     88  75  65 S15G22    29.94F HX  97
GLENCOE        CLOUDY    86  77  73 S10G20    29.92F HX  97
FARIBAULT      MOSUNNY   84  72  65 S13G20    29.97S
OWATONNA       SUNNY     82  72  69 S22G28    29.97F
WASECA         SUNNY     82  70  65 S16G26    29.97F
ALBERT LEA     SUNNY     84  70  61 S22G29    29.99F
$$
MNZ078>079-086>088-094>096-252200-
   Southeast Minnesota

CITY           SKY/WX    TMP DP  RH WIND       PRES   REMARKS
ROCHESTER      MOSUNNY   78  69  73 S22G33    30.00F
RED WING       CLOUDY    79  68  69 SE6       29.98S
STANTON        PTSUNNY   82  71  67 S9G17     29.97S
DODGE CENTER   MOSUNNY   81  70  69 S23       30.00S
WINONA         MOSUNNY   81  64  57 S5        30.02R
AUSTIN         SUNNY     82  70  65 S22       30.00F
PRESTON        SUNNY     79  64  61 S16G28    30.03F
$$
ABBREVIATIONS USED IN REMARKS
   TC - TEMPERATURES IN CELSIUS
  WCI - WIND CHILL INDEX
   HX - HEAT INDEX
  VSB - VISIBILITY
$$



USA.gov is the U.S. government's official web portal to all federal, state and local government web resources and services.